Orbital elements:
2004 VD17                                                            PHA 0.001
Epoch 2005 Aug. 18.0 TT = JDT 2453600.5                 MPC
M 180.53432              (2000.0)            P               Q
n   0.53225543     Peri.   90.69498     +0.70451667     +0.70782504
a   1.5079582      Node   224.24865     -0.67689989     +0.64845289
e   0.5887563      Incl.    4.22281     -0.21322006     +0.28016525
P   1.85           H   18.8           G   0.15           U   2
Residuals in seconds of arc
041107 704  0.9+  0.5+    041119 176  0.0   0.1+    041209 703  0.4-  0.2-
041107 704  0.4+  0.2+    041119 176  0.0   0.2+    041209 703  0.5-  0.1+
041107 704  0.4+  0.4+    041119 A06  1.0+  0.2+    041209 703  0.9-  0.0
041107 704  0.2+  0.4+    041119 A06  0.8+  0.5+    041209 703  0.1+  0.1-
041108 118  1.7-  0.1+    041119 A06  0.4+  0.7+    041209 A62  0.1+  0.1-
041108 118  1.3-  0.1+    041120 932  0.4-  0.2-    041209 A62  0.2-  0.0
041108 118  0.0   0.0     041120 932  0.2-  0.1-    041209 A62  0.0   0.1+
041108 118  0.0   0.1-    041120 932  0.3-  0.2-    041209 A62  0.4+  0.1+
041108 118  0.1-  0.1-    041120 932  0.2-  0.0     041209 A62  0.1-  0.5+
041108 649  0.1+  0.2+    041120 932  0.1-  0.1+    041209 A62  0.1-  0.5+
041108 649  0.0   0.2+    041120 704  0.2-  0.3+    041209 A62  0.0   0.2+
041108 649  0.1+  0.0     041120 932  0.2+  0.2-    041209 A53  0.5-  1.1+
041108 734  0.1-  0.2-    041120 704  0.6-  0.4+    041209 246  0.8+  0.7-
041108 734  0.1+  0.1-    041120 H06  0.2-  0.2+    041209 246  0.2+  0.4+
041108 734  0.3+  0.1-    041120 704  0.5-  0.4+    041209 246  0.5+  0.7-
041108 734  0.1+  0.0     041120 H06  0.1-  0.1+    041209 246  0.3+  1.1-
041108 734  0.2+  0.1-    041120 704  0.2+  0.5+    041209 A53  0.3-  0.1-
041108 H06  0.1+  0.1+    041120 H06 (2.8-  3.1+)   041209 246  0.2+  1.0-
041108 H06  0.2+  0.4+    041120 379  0.2+  0.4-    041210 H41  0.2+  0.5-
041108 H06  0.3-  0.5-    041120 379  0.2+  0.2-    041210 H41  0.7-  0.3+
041108 H06  0.4+  0.0     041120 379  0.4+  0.2-    041210 H41  0.5-  0.3-
041108 H06  0.3+  0.1+    041120 379  0.8+  0.0     041210 J95  0.1+  0.4-
041108 H06  0.2+  0.0     041120 198  0.4-  0.2+    041210 J95  0.2-  0.2+
041108 587  0.0   0.5+    041120 108  0.5-  0.2-    041210 A57  0.2-  0.0
041108 587  0.3-  0.1+    041120 108  0.7-  0.1+    041210 A57  0.1+  0.0
041108 587  0.1-  0.3+    041120 198  0.2-  0.1+    041210 246  0.2-  0.3+
041109 J95  0.0   0.1+    041120 198  0.2-  0.1+    041210 246  0.3+  0.2+
041109 J95  0.1+  0.1+    041120 108  0.2+  0.6-    041210 A57  0.4+  0.2+
041109 J95  0.2-  0.3+    041120 108  0.3-  0.0     041210 246  0.1+  0.3+
041109 938  0.9-  0.1+    041120 198  0.3-  0.2+    041210 246  0.2-  0.3+
041109 938  0.7-  0.1+    041120 198  0.1-  0.2+    041210 246  0.1+  0.2+
041109 938  0.3-  1.7+    041120 A56  0.3-  0.1+    041210 A53  0.6+  1.5+
041109 938  0.0   0.0     041120 A56  0.5+  0.4+    041210 A53  0.1+  0.1-
041109 938  0.3-  0.1+    041120 A56  0.3-  0.4+    041210 A53  0.2-  0.6+
041109 938  0.4-  0.2-    041120 A56  0.5-  0.1+    041210 A53  0.3-  0.1-
041109 379  0.5+  0.4+    041121 715  0.2-  0.0     041211 734  0.0   0.1-
041109 379  0.5-  0.1+    041121 715  0.3-  0.2-    041211 734  0.2+  0.2-
041109 379  0.5+  0.2+    041121 715  0.1-  0.7+    041211 734  0.1+  0.1-
041109 379  0.4-  0.6-    041121 715  0.3-  0.4+    041211 715  0.1-  0.1-
041109 379  0.1+  0.2+    041121 608  0.3+  0.2-    041211 715  0.3-  0.0
041109 J92  0.1+  0.3+    041121 608  0.2+  0.1-    041211 715  0.4-  0.1-
041109 J92  0.0   0.3+    041121 608  0.2+  0.3-    041211 608  1.2-  0.5+
041110 J92  0.1+  0.3+    041121 379  0.3+  0.4-    041211 608  1.2-  0.7+
041110 J92  0.0   0.7+    041121 379  0.2-  0.1-    041211 608  0.6-  0.7+
041110 J92  0.1-  0.5+    041121 379  0.6-  0.4-    041211 941  0.2+  0.4-
041110 J92  0.1+  0.6+    041121 379  0.3-  0.0     041211 941  0.2+  0.3-
041110 J92  0.2-  0.3+    041121 160  0.0   0.1-    041211 941  0.0   0.2-
041110 J92  0.0   0.4+    041121 160  0.3-  0.1-    041211 941  0.1-  0.2-
041110 J92  0.1-  0.2+    041121 160  0.2-  0.5-    041212 H41  0.6+  0.3-
041110 J92  0.2-  0.6+    041121 160  0.2+  0.1-    041212 H41  0.1+  0.1+
041110 932  0.2-  0.1+    041121 160  0.1-  0.2-    041212 H41  0.4+  0.0
041110 932  0.2-  0.0     041121 160  0.3-  0.1-    041212 H41  0.1+  0.8-
041110 932  0.0   0.0     041121 160  0.1-  0.3-    041212 246  0.2-  0.3+
041110 932  0.1-  0.0     041121 160  0.1+  0.2-    041212 246  0.2-  0.2+
041110 932  0.2-  0.1-    041121 160  0.4-  0.1-    041212 246  0.1+  0.2+
041110 932  0.2-  0.0     041121 160  0.0   0.1+    041212 246  0.0   0.1+
041110 H06  1.5+  0.3+    041121 160  0.2-  0.2-    041212 246  0.1-  0.3+
041110 H06  1.4+  0.4+    041121 160  0.1-  0.0     041212 246  0.1-  0.3+
041110 H06  1.4+  0.3+    041121 160  0.2-  0.1-    041212 560  0.1+  0.5+
041110 H06  1.4+  0.2+    041121 160  0.2-  0.2-    041212 560  0.1-  0.5+
041110 H06  1.4+  0.3-    041121 160  0.3-  0.2-    041212 560  0.0   0.0
041110 H06  1.5+  0.3+    041121 160  0.2-  0.2-    041213 704  0.9-  0.7+
041110 H06  1.7+  0.3+    041121 160  0.2-  0.2+    041213 704  0.5+  0.0
041111 938  0.1+  0.1-    041121 160  0.1-  0.2-    041213 704  0.1-  0.4+
041111 938  0.2-  0.1+    041121 160  0.4-  0.3-    041213 A62  0.4-  0.4+
041111 938  0.2-  0.3-    041121 160  0.1-  0.1-    041213 A62  0.2-  0.2+
041111 J95  0.1+  0.0     041121 160  0.3-  0.3-    041213 A62  0.1+  0.2+
041111 J95  0.0   0.1+    041121 084  0.1+  0.2+    041213 246  0.1-  0.2-
041111 J95  0.1+  0.1+    041122 084  0.2+  0.3+    041213 246  0.3+  0.3-
041112 H06  0.3-  0.1+    041123 I77  0.3+  0.5+    041213 246  0.1+  0.2+
041112 H06  0.0   0.1-    041123 I77  1.3-  0.1-    041213 246  0.0   0.0
041112 H06  0.2-  0.1+    041123 I77  0.2-  0.1-    041213 246  0.0   0.0
041112 587  0.0   0.7+    041123 I77  0.4-  0.6-    041213 A62  0.4+  0.2+
041112 587  0.1-  0.2+    041123 I77  0.6+  0.0     041213 246  0.5+  0.3-
041112 587  0.3-  0.3+    041123 932  0.0   0.1-    041213 246  0.2+  0.1-
041112 587  0.1-  0.4+    041123 932  0.2-  0.3-    041213 246  0.4+  0.0
041112 J81  1.7+  0.1-    041123 932  0.1+  0.3+    041213 A62  0.1+  0.2+
041112 J81  0.1+  0.8+    041123 932  0.2-  0.1-    041214 734  0.1+  0.1+
041112 J81  1.7-  0.4+    041123 932  0.1-  0.1-    041214 699  0.9-  0.2+
041112 J81  0.7-  0.4+    041123 932  0.0   0.1-    041214 734  0.2-  0.4+
041112 J81  0.2-  0.0     041123 932  0.1-  0.0     041214 734  0.5+  0.1-
041113 203  0.4-  0.1+    041123 932  0.1-  0.1-    041214 699  0.1+  0.4+
041113 203  0.4-  0.2-    041123 932  0.0   0.1-    041214 699  0.4+  0.1+
041113 203  0.0   0.1-    041123 932  0.0   0.1-    041214 699  0.1-  0.1+
041113 J95  0.0   0.2+    041123 932  0.1-  0.1-    041214 291  0.1-  0.2+
041113 J95  0.1-  0.1-    041123 203  0.1-  0.0     041214 291  1.0+  0.5+
041113 J95  0.0   0.3-    041123 203  0.3-  0.0     041214 291  0.5-  0.1+
041113 A16  0.0   0.3-    041123 203  0.1+  0.3-    041214 246  0.2-  0.3+
041113 A16  0.1+  0.2-    041124 A41  0.2+  0.4+    041214 246  0.5-  0.1+
041113 A16  0.1-  0.2-    041124 A41  0.8+  0.2+    041214 246  0.5-  0.3+
041113 A16  0.0   0.1-    041124 A41  0.1-  0.4-    041214 246  0.6-  0.3+
041113 A16  0.0   0.3-    041125 H41  0.6+  0.4-    041214 246  0.4-  0.1+
041113 A16  0.2-  0.2-    041125 H41  1.2+  0.4-    041214 246  0.4-  0.0
041113 203  0.0   0.0     041125 H41  0.8+  0.3-    041214 A53  1.0-  0.2+
041114 203  0.1-  0.0     041125 H41  1.0+  0.9-    041214 A53  0.2-  0.2-
041114 952  0.1-  0.1+    041125 H41  1.6+  0.7-    041214 A53  0.7+  0.3-
041114 952  0.1-  0.0     041125 084  0.2-  0.1+    041214 147  0.0   0.3-
041114 952  0.2-  0.2+    041126 118  0.2+  0.1+    041214 147  0.1+  0.1+
041114 952  0.2+  0.4+    041126 118  0.4+  0.1-    041214 147  0.2-  0.3+
041114 952  0.2-  0.4+    041126 118  0.0   0.0     041214 147  0.1-  0.1+
041114 952  0.4+  0.4+    041126 118  0.1+  0.1-    041215 147  0.2+  0.1-
041114 952  0.4+  0.3+    041127 448  0.0   0.2-    041215 A62  0.3-  0.2+
041114 952  0.1+  0.1+    041127 448  0.2+  0.2-    041215 246  0.0   0.4-
041114 952  0.0   0.1+    041127 448  0.2+  0.5-    041215 A62  0.1-  0.2+
041114 203  0.0   0.1-    041128 H41  0.3-  0.1-    041215 246  0.2-  0.1-
041114 A06  1.0+  0.1+    041128 H41  0.5+  0.3+    041215 246  0.3-  0.0
041114 A06  1.7+  0.2-    041128 H41  0.2+  0.1+    041215 246  0.2-  0.2+
041114 J95  0.1+  0.0     041128 H41  0.1+  0.3-    041215 246  0.2-  0.0
041114 J95  0.1-  0.0     041128 H41  0.2-  0.1-    041215 198  0.0   0.0
041114 J95  0.0   0.1+    041129 932  0.2+  0.3-    041215 198  0.4-  0.1+
041114 932  0.0   0.0     041129 932  0.1+  0.3-    041215 198  0.4-  0.1+
041114 932  0.2-  0.2-    041129 932  0.0   0.5-    041215 198  0.5-  0.2+
041114 932  0.5-  0.1+    041130 118  0.3+  0.0     041216 932  0.4+  0.1-
041114 932  0.2-  0.2-    041130 118  0.5+  0.0     041216 932  0.2+  0.1+
041114 932  0.2-  0.1+    041130 118  0.1+  0.1+    041216 932  0.0   0.0
041114 932  0.1-  0.0     041130 H06  0.3-  0.1+    041216 932  0.3+  0.1+
041114 932  0.1-  0.1-    041130 H06  0.1+  0.0     041216 932  0.1-  0.2+
041114 A06  1.5+  0.2-    041130 H06  0.2-  0.1-    041216 291  0.0   0.1+
041114 A06  0.5+  0.7+    041201 J95  0.2+  0.0     041216 291  0.0   0.1+
041115 932  0.2-  0.1-    041201 J95  0.2+  0.0     041216 291  0.1+  0.1+
041115 932  0.2-  0.1-    041201 J95  0.3+  0.0     041216 932  0.2+  0.1+
041115 932  0.2-  0.1-    041201 J95  0.2+  0.0     041216 608  1.5-  0.6-
041115 932  0.1-  0.1-    041201 J95  0.3+  0.1-    041216 608  1.8-  0.4+
041115 932  0.0   0.1-    041201 J95  0.2+  0.0     041216 608  1.7-  0.0
041115 932  0.1+  0.1-    041202 H06  0.4-  0.1+    041217 734  0.0   0.2-
041115 932  0.0   0.1-    041202 H06  0.4-  0.1+    041217 734  0.5+  0.2-
041115 670  0.0   0.0     041202 H06  0.2-  0.1+    041217 734  0.2+  0.5-
041115 670  0.1+  0.1-    041202 932  0.1+  0.2-    041217 J95  0.7+  0.2-
041115 670  0.1+  0.0     041202 932  0.1+  0.2-    041217 J95  0.1+  0.3-
041115 670  0.4-  0.2-    041202 932  0.2+  0.1-    041217 J95  0.1+  0.2+
041115 379  0.3+  0.1-    041202 699  0.3-  0.5+    041218 932  0.2+  0.1-
041115 379  0.2+  0.3+    041202 699  0.5-  0.0     041218 932  0.2+  0.1-
041115 379  0.3+  0.4-    041202 H41  0.6+  0.2-    041218 932  0.3+  0.0
041115 379  0.8+  0.2+    041202 H41  0.2-  0.3-    041218 932  0.3+  0.1-
041115 246  0.0   0.2+    041202 H41  0.1-  0.3-    041218 932  0.1-  0.1-
041115 246  0.1-  0.3+    041202 H41  0.1-  0.5-    041218 704  0.1-  0.0
041115 246  0.1-  0.4+    041202 H41  0.0   0.1-    041218 704  0.1+  0.0
041115 246  0.2-  0.2+    041202 699  0.3-  0.0     041218 704  0.4+  0.6-
041115 246  0.4+  0.4+    041202 699  0.2+  0.2+    041218 704  0.3-  0.3-
041115 246  0.1+  0.4+    041202 A16  1.2-  0.4-    041218 704  0.1-  0.4-
041115 213  0.1+  0.2+    041202 A16  1.0-  0.7+    041218 941  0.2+  0.6+
041115 213  0.2+  0.2+    041202 170  0.4+  0.2-    041218 941  0.3+  0.5+
041115 213  0.1+  0.3+    041202 170  0.1+  0.4-    041218 941  0.4+  0.5+
041115 469  0.3+  0.0     041202 170  0.1-  0.5-    041218 941  0.4+  0.5+
041115 213  0.2+  0.2+    041203 J95  0.0   0.1-    041218 941  0.4+  0.4+
041115 469  0.4-  0.0     041203 J95  0.1+  0.1-    041219 715  0.6-  0.0
041115 A16  0.8-  0.2-    041203 932  0.2+  0.2-    041219 715  0.4-  0.1+
041115 469  0.3-  0.0     041203 J95  0.1-  0.1+    041219 715  0.1-  0.2-
041115 A16  0.9-  0.2-    041203 932  0.2+  0.2-    041219 J95  0.7+  0.3-
041115 469  0.7-  0.1-    041203 J95  0.1-  0.1-    041219 J95  0.5+  0.2+
041115 A16  0.9-  0.2-    041203 932  0.1-  0.0     041219 J95  0.3+  0.1-
041115 469  0.2-  0.1+    041203 704  0.4-  0.4+    041221 587  0.4+  0.5+
041115 A16  0.9-  0.0     041203 704  0.6-  0.4+    041221 587  0.3+  0.8-
041115 A16  0.9-  0.4-    041203 734  0.2-  0.2-    041227 952  0.5+  0.8+
041115 A16  0.9-  0.3-    041203 734  0.0   0.1-    041227 952  0.6+  1.1+
041116 379  0.0   0.3-    041203 734  0.1+  0.1-    041227 952  0.7+  1.2+
041116 379  0.2+  0.0     041203 734  0.2+  0.0     041227 952  0.8+  1.0+
041116 379  0.0   0.5-    041203 734  0.0   0.0     041227 952  0.8+  1.0+
041116 108  0.9-  0.2-    041203 734  0.2+  0.1+    041229 734  0.9+  0.6-
041116 108  0.4+  0.2+    041203 734  0.3+  0.0     041229 734  0.5-  0.4-
041116 108  0.2-  0.2+    041203 734  0.3+  0.1-    041230 176  0.2+  0.2-
041116 108  0.3-  0.2+    041203 734  0.0   0.2-    041230 176  0.0   0.4-
041116 A30  0.3-  0.4+    041203 734  0.5+  0.2-    041230 176  0.2-  0.6-
041116 A30  0.2-  0.2+    041203 704  0.4+  1.9-    041231 715  0.9-  0.3-
041116 A30  0.2-  0.1-    041203 704  1.2-  0.1+    041231 715  0.2+  0.2+
041116 A30  0.1-  0.2-    041203 H41  0.2+  0.1-    041231 734  0.4-  1.0+
041116 A16  0.3-  0.1-    041203 H41  0.0   0.4-    041231 715  0.0   0.6-
041116 A16  0.2-  0.0     041203 H41  0.5-  1.0-    041231 734  1.8+  0.1+
041116 A16  0.0   0.2-    041203 H41  0.2-  0.2-    050101 A30  0.0   0.5+
041116 A16  0.3-  0.2-    041204 932  0.1+  0.1-    050101 A30  0.1-  0.7+
041116 176  0.0   0.2-    041204 932  0.2+  0.0     050101 A30  1.1+  0.2-
041116 176  0.0   0.0     041204 932  0.3+  0.1-    050101 J95  0.7+  0.2+
041116 176  0.2-  0.1-    041204 932  0.2+  0.1-    050101 J95  0.4-  0.4-
041116 A16  0.3-  0.2-    041204 932  0.2+  0.1-    050101 J95  0.4-  0.4-
041116 176  0.3-  0.2-    041204 H41  0.2-  0.1-    050101 941  0.1+  0.6+
041116 176  0.0   0.1-    041204 H41  0.1-  0.2-    050101 941  0.0   0.5+
041116 176  0.2-  0.0     041204 H41  0.5+  0.4-    050101 941  0.0   0.6+
041116 A16  0.0   0.2-    041204 H41  0.6+  0.0     050101 941  0.1-  0.5+
041116 203  0.0   0.2-    041204 H41  0.2-  0.2+    050101 941  0.1-  0.5+
041116 938  0.2-  0.1+    041204 938  0.1-  0.0     050102 952  1.0-  0.8+
041116 A16  0.3-  0.0     041204 938  0.2-  0.2+    050102 952  0.8-  0.6+
041116 938  0.1-  0.2-    041204 938  0.4-  0.1-    050102 952  0.9-  0.5+
041116 A16  0.5-  0.2+    041204 246  0.2-  0.1-    050102 952  0.7-  0.3+
041116 938  0.2-  0.2+    041204 246  0.3-  0.3-    050102 952  0.3-  0.2-
041116 938  0.5-  0.0     041204 246  0.4-  0.1-    050103 587  0.1-  0.0
041116 A48  0.0   0.1+    041204 246  0.0   0.1+    050103 587 (2.1+  0.2+)
041116 A48  0.2-  0.2+    041204 246  0.2-  0.1+    050104 J95  0.4-  0.3+
041116 A48  0.5+  0.5+    041204 246  0.1-  0.0     050104 J95  0.2+  0.2+
041116 203  0.1+  0.0     041204 246  0.2-  0.2+    050104 J95  0.2-  0.1-
041116 938  0.8-  0.2+    041206 932  0.0   0.2-    050105 941  0.1+  0.6-
041116 938  0.1-  0.0     041206 932  0.0   0.2-    050105 941  0.0   0.6-
041117 932  0.2-  0.2-    041206 932  0.0   0.1-    050105 941  0.1+  0.4-
041117 932  0.0   0.0     041206 932  0.1+  0.2-    050105 941  0.0   0.3-
041117 932  0.0   0.1-    041206 932  0.1+  0.2-    050107 587  0.0   0.8+
041117 932  0.1+  0.1-    041206 198  0.4-  0.3+    050107 587  0.0   0.5+
041117 932  0.0   0.3-    041206 198  0.4-  0.3+    050111 715  0.9+  0.1-
041117 932  0.4-  0.3-    041206 198  0.2-  0.4+    050111 715  0.5+  0.3-
041117 H41  0.4+  0.3-    041206 198  0.3-  0.3+    050111 701  0.4-  0.0
041117 H41  0.1-  0.4-    041206 198  0.3-  0.4+    050111 715  0.7+  0.1+
041117 H41  0.2+  0.4-    041206 246  0.1+  0.0     050111 701  0.3+  0.1-
041117 H41  0.2+  0.1+    041206 246  0.0   0.3+    050111 701  0.9-  0.6-
041117 H41  0.1+  0.2-    041206 938  0.3+  0.2-    050112 F65  0.1-  0.1-
041117 A70  0.4-  0.0     041206 938  0.1-  0.1-    050112 F65  0.3-  0.1+
041117 A70  0.1-  0.4+    041207 938  0.1-  0.4-    050112 F65  0.3-  0.1+
041117 A70  0.1-  0.1-    041207 246  0.0   0.4+    050112 F65  0.1-  0.2+
041117 A70 (2.5-  0.3-)   041207 246  0.2+  0.4+    050112 J95  0.1+  0.7+
041118 932  0.2+  0.1-    041207 246  0.0   0.2+    050112 J95  0.4+  0.8+
041118 932  0.0   0.1-    041207 246  0.0   0.2+    050113 291  0.1-  0.1-
041118 932  0.2+  0.1-    041207 246  0.1+  0.3+    050113 291  0.2-  0.1+
041118 932  0.2-  0.3-    041207 246  0.1+  0.2+    050113 291  0.1+  0.2-
041118 704  0.1+  0.3-    041207 938  0.1+  0.4+    050114 198  0.6-  0.0
041118 704  0.0   0.1-    041207 587  0.1-  0.2-    050114 198  0.8-  0.2+
041118 704  0.3+  0.4-    041207 587  0.1-  0.4+    050114 198  0.5-  0.0
041118 704  0.2-  0.4-    041207 587  0.6-  0.5+    050114 587  0.1+  1.2-
041118 704  0.1-  0.3-    041208 130  0.2+  0.2-    050114 587  0.4-  0.2-
041118 671  0.0   0.2-    041208 130  0.1-  0.2-    050115 291  0.1-  0.3+
041118 671  0.2-  0.3-    041208 130  0.3+  0.1-    050115 291  0.2+  0.1+
041118 671  0.1-  0.2-    041208 130  0.2+  0.1-    050115 291  0.1+  0.3+
041118 671  0.1-  0.2-    041208 734  0.6-  0.1-    050115 246  0.5+  1.7+
041118 671  0.2-  0.2-    041208 734  0.2+  0.1-    050115 246  0.4+  1.5+
041118 671  0.2-  0.2-    041208 734  0.3+  0.2-    050116 715  0.1+  0.3+
041118 671  0.2-  0.2-    041208 734  0.3+  0.3-    050116 715  0.2+  0.2+
041118 671  0.2+  0.2-    041208 734  1.2+  0.0     050116 715  0.1+  0.4-
041118 671  0.0   0.2-    041208 734  0.4+  0.2-    050116 291  0.1-  0.1+
041118 671  0.1+  0.3-    041208 734  0.6+  0.1+    050116 291  0.3-  0.2+
041118 671  0.1-  0.2-    041208 734  0.3-  0.3-    050116 291  0.2-  0.3+
041118 A06  1.4+  0.3+    041208 246  0.1+  0.4+    050118 696  0.0   0.2+
041118 A06  0.6+  0.3+    041208 246  0.1+  0.2+    050118 696  0.2+  0.0
041119 670  0.1-  0.1-    041208 246  0.2+  0.2+    050126 715  0.8-  0.4-
041119 670  0.2+  0.1-    041208 246  0.3+  0.3+    050126 715  0.0   0.0
041119 670  0.1+  0.1-    041208 246  0.2+  0.2+    050128 715  0.6-  0.2-
041119 670  0.3+  0.3+    041209 198  0.1+  0.6+    050128 715  0.2-  0.0
041119 J95  0.1+  0.3+    041209 198  0.1+  0.5+    050128 715  0.1-  0.3-
041119 J95  0.0   0.6-    041209 198  0.1+  0.5+    050304 568  0.2-  0.1+
041119 130  0.3-  0.2+    041209 198  0.1+  0.5+    050304 568  0.1-  0.1+
041119 130  0.2-  0.1-    041209 198  0.1+  0.4+    050304 568  0.2-  0.0
041119 130  0.0   0.1-    041209 734  0.5-  0.1+    051104 568  0.0   0.0
041119 176  0.3-  0.0     041209 734  0.3-  0.1-    051104 568  0.0   0.1+
041119 130  0.0   0.0     041209 734  0.2-  0.3+    051111 568  0.1+  0.1+
041119 176  0.2-  0.1+    041209 932  0.2-  0.2-    051113 568  0.0   0.1-
041119 176  0.1-  0.1+    041209 932  0.2+  0.0
041119 130  0.1+  0.0     041209 932  0.2+  0.3-

